, NV

(GMT )
Eureka Airport

Weather History for K05U - September, 2013

Change the Weather History Date:

Saturday, September 28, 2013

  Actual Average Record
Temperature  
Mean Temperature 47 °F -  
Max Temperature 68 °F - - ()
Min Temperature 26 °F - - ()
Degree Days  
Heating Degree Days 18    
Moisture  
Dew Point 25 °F    
Average Humidity 51    
Maximum Humidity 93    
Minimum Humidity 18    
Precipitation  
Precipitation 0.00 in - - ()
Sea Level Pressure  
Sea Level Pressure 30.21 in    
Wind  
Wind Speed 5 mph (South)    
Max Wind Speed 15 mph    
Max Gust Speed -    
Visibility 10 miles    
Events      
T = Trace of Precipitation, MM = Missing Value Source: NWS Daily Summary

Daily Weather History Graph

Daily Weather History Graph

Search for Another Location

Airport or City:

Trip Planner

Search our weather history database for the weather conditions in past years. The results will help you decide how hot, cold, wet, or windy it might be!

Date:

Astronomy

Sep. 28, 2013 Rise Set
Actual Time 6:37 AM PDT 6:30 PM PDT
Civil Twilight 6:10 AM PDT 6:57 PM PDT
Nautical Twilight 5:39 AM PDT 7:28 PM PDT
Astronomical Twilight 5:07 AM PDT 8:00 PM PDT
Moon 12:30 AM PDT (9/28) 2:51 PM PDT (9/28)
Length of Visible Light 12h 46m
Length of Day
11h 53m
Waning Crescent, 35% of the Moon is Illuminated
Sep 28
Waning Crescent
Oct 4
New
Oct 11
First Quarter
Oct 18
Full
Oct 26
Last Quarter

Hourly Weather History & Observations

Time (PDT) Temp. Windchill Dew Point Humidity Pressure Visibility Wind Dir Wind Speed Gust Speed Precip Events Conditions
12:05 AM 32.0 °F 26.4 °F 26.6 °F 80% 30.24 in 10.0 mi SSW 5.8 mph - N/A   Clear
12:25 AM 30.2 °F 26.7 °F 26.6 °F 86% 30.24 in 10.0 mi SW 3.5 mph - N/A   Clear
12:45 AM 28.4 °F 24.6 °F 24.8 °F 86% 30.24 in 10.0 mi South 3.5 mph - N/A   Clear
1:05 AM 28.4 °F 22.2 °F 26.6 °F 93% 30.24 in 10.0 mi South 5.8 mph - N/A   Clear
1:25 AM 30.2 °F 25.4 °F 26.6 °F 86% 30.24 in 10.0 mi SSW 4.6 mph - N/A   Clear
1:45 AM 28.4 °F 24.6 °F 26.6 °F 93% 30.24 in 10.0 mi South 3.5 mph - N/A   Clear
2:05 AM 30.2 °F 24.3 °F 26.6 °F 86% 30.24 in 10.0 mi SSW 5.8 mph - N/A   Clear
2:25 AM 32.0 °F 25.6 °F 26.6 °F 80% 30.23 in 10.0 mi South 6.9 mph - N/A   Clear
2:45 AM 30.2 °F 23.4 °F 26.6 °F 86% 30.23 in 10.0 mi SSW 6.9 mph - N/A   Clear
3:05 AM 28.4 °F 23.3 °F 24.8 °F 86% 30.23 in 10.0 mi SW 4.6 mph - N/A   Clear
3:25 AM 26.6 °F 21.2 °F 24.8 °F 93% 30.23 in 10.0 mi SW 4.6 mph - N/A   Clear
3:45 AM 26.6 °F - 24.8 °F 93% 30.24 in 10.0 mi Calm Calm - N/A   Clear
4:05 AM 28.4 °F 20.4 °F 24.8 °F 86% 30.22 in 10.0 mi South 8.1 mph - N/A   Clear
4:25 AM 28.4 °F 23.3 °F 24.8 °F 86% 30.22 in 10.0 mi SSW 4.6 mph - N/A   Clear
4:45 AM 26.6 °F 20.0 °F 24.8 °F 93% 30.23 in 10.0 mi SSW 5.8 mph - N/A   Clear
5:05 AM 28.4 °F 24.6 °F 24.8 °F 86% 30.23 in 10.0 mi SSW 3.5 mph - N/A   Clear
5:25 AM 28.4 °F 20.4 °F 24.8 °F 86% 30.23 in 10.0 mi SSW 8.1 mph - N/A   Clear
5:45 AM 30.2 °F 22.6 °F 26.6 °F 86% 30.23 in 10.0 mi SSW 8.1 mph - N/A   Clear
6:05 AM 28.4 °F 23.3 °F 24.8 °F 86% 30.25 in 10.0 mi SW 4.6 mph - N/A   Clear
6:25 AM 28.4 °F 23.3 °F 24.8 °F 86% 30.25 in 10.0 mi SSW 4.6 mph - N/A   Clear
6:45 AM 26.6 °F 19.1 °F 24.8 °F 93% 30.25 in 10.0 mi SW 6.9 mph - N/A   Clear
7:05 AM 28.4 °F 23.3 °F 24.8 °F 86% 30.25 in 10.0 mi SSW 4.6 mph - N/A   Clear
7:25 AM 30.2 °F 24.3 °F 26.6 °F 86% 30.24 in 10.0 mi SSW 5.8 mph - N/A   Clear
7:45 AM 32.0 °F 28.7 °F 28.4 °F 87% 30.25 in 10.0 mi SSW 3.5 mph - N/A   Clear
8:05 AM 37.4 °F 34.9 °F 28.4 °F 70% 30.25 in 10.0 mi WSW 3.5 mph - N/A   Clear
8:25 AM 39.2 °F - 30.2 °F 70% 30.26 in 10.0 mi Calm Calm - N/A   Clear
8:40 AM 41.0 °F 38.0 °F 32.0 °F 70% 30.26 in 10.0 mi ENE 4.6 mph - N/A   Clear
9:05 AM 41.0 °F 38.0 °F 30.2 °F 65% 30.27 in 10.0 mi East 4.6 mph - N/A   Clear
9:25 AM 44.6 °F - 30.2 °F 57% 30.27 in 10.0 mi Calm Calm - N/A   Clear
9:45 AM 48.2 °F - 28.4 °F 46% 30.27 in 10.0 mi Calm Calm - N/A   Clear
10:05 AM 50.0 °F - 28.4 °F 43% 30.27 in 10.0 mi Calm Calm - N/A   Clear
10:25 AM 51.8 °F - 28.4 °F 41% 30.27 in 10.0 mi Calm Calm - N/A   Clear
10:45 AM 53.6 °F - 28.4 °F 38% 30.26 in 10.0 mi Calm Calm - N/A   Clear
11:05 AM 55.4 °F - 28.4 °F 36% 30.26 in 10.0 mi Calm Calm - N/A   Clear
11:25 AM 57.2 °F - 28.4 °F 33% 30.25 in 10.0 mi SE 3.5 mph - N/A   Clear
11:45 AM 57.2 °F - 26.6 °F 31% 30.25 in 10.0 mi Calm Calm - N/A   Clear
12:05 PM 59.0 °F - 24.8 °F 27% 30.24 in 10.0 mi Calm Calm - N/A   Clear
12:25 PM 59.0 °F - 23.0 °F 25% 30.24 in 10.0 mi WSW 3.5 mph - N/A   Clear
12:45 PM 62.6 °F - 24.8 °F 24% 30.24 in 10.0 mi WSW 5.8 mph - N/A   Clear
1:05 PM 62.6 °F - 24.8 °F 24% 30.23 in 10.0 mi SW 3.5 mph - N/A   Clear
1:25 PM 64.4 °F - 24.8 °F 22% 30.22 in 10.0 mi Calm Calm - N/A   Clear
1:45 PM 64.4 °F - 23.0 °F 21% 30.21 in 10.0 mi NW 4.6 mph - N/A   Clear
2:05 PM 66.2 °F - 23.0 °F 19% 30.20 in 10.0 mi South 6.9 mph - N/A   Clear
2:20 PM 66.2 °F - 23.0 °F 19% 30.20 in 10.0 mi Calm Calm - N/A   Clear
2:40 PM 68.0 °F - 23.0 °F 18% 30.20 in 10.0 mi South 6.9 mph - N/A   Clear
3:00 PM 68.0 °F - 23.0 °F 18% 30.19 in 10.0 mi Calm Calm - N/A   Clear
3:25 PM 68.0 °F - 24.8 °F 20% 30.18 in 10.0 mi SE 4.6 mph - N/A   Clear
3:45 PM 68.0 °F - 23.0 °F 18% 30.18 in 10.0 mi SSE 5.8 mph - N/A   Clear
4:05 PM 68.0 °F - 23.0 °F 18% 30.17 in 10.0 mi Calm Calm - N/A   Clear
4:25 PM 68.0 °F - 23.0 °F 18% 30.17 in 10.0 mi WSW 9.2 mph - N/A   Clear
4:45 PM 68.0 °F - 23.0 °F 18% 30.17 in 10.0 mi SE 3.5 mph - N/A   Clear
5:05 PM 68.0 °F - 23.0 °F 18% 30.16 in 10.0 mi Calm Calm - N/A   Clear
5:25 PM 68.0 °F - 24.8 °F 20% 30.16 in 10.0 mi SSE 12.7 mph - N/A   Clear
5:45 PM 66.2 °F - 24.8 °F 21% 30.16 in 10.0 mi SSE 15.0 mph - N/A   Clear
6:05 PM 64.4 °F - 24.8 °F 22% 30.15 in 10.0 mi South 13.8 mph - N/A   Clear
6:25 PM 62.6 °F - 24.8 °F 24% 30.15 in 10.0 mi SSE 10.4 mph - N/A   Clear
6:45 PM 59.0 °F - 24.8 °F 27% 30.15 in 10.0 mi SSE 8.1 mph - N/A   Clear
7:05 PM 57.2 °F - 24.8 °F 29% 30.16 in 10.0 mi South 6.9 mph - N/A   Clear
7:25 PM 55.4 °F - 24.8 °F 31% 30.16 in 10.0 mi South 9.2 mph - N/A   Clear
7:45 PM 55.4 °F - 23.0 °F 29% 30.17 in 10.0 mi South 10.4 mph - N/A   Clear
8:05 PM 55.4 °F - 23.0 °F 29% 30.17 in 10.0 mi SSW 5.8 mph - N/A   Clear
8:25 PM 53.6 °F - 21.2 °F 28% 30.17 in 10.0 mi South 8.1 mph - N/A   Clear
8:45 PM 51.8 °F - 23.0 °F 33% 30.18 in 10.0 mi South 5.8 mph - N/A   Clear
9:05 PM 51.8 °F - 23.0 °F 33% 30.18 in 10.0 mi South 9.2 mph - N/A   Clear
9:25 PM 51.8 °F - 23.0 °F 33% 30.18 in 10.0 mi South 8.1 mph - N/A   Clear
9:45 PM 50.0 °F - 23.0 °F 35% 30.18 in 10.0 mi South 9.2 mph - N/A   Clear
10:05 PM 50.0 °F - 23.0 °F 35% 30.18 in 10.0 mi South 6.9 mph - N/A   Clear
10:25 PM 48.2 °F - 24.8 °F 40% 30.18 in 10.0 mi South 6.9 mph - N/A   Clear
10:45 PM 48.2 °F - 23.0 °F 37% 30.19 in 10.0 mi South 5.8 mph - N/A   Clear
11:05 PM 48.2 °F - 23.0 °F 37% 30.19 in 10.0 mi South 4.6 mph - N/A   Clear
11:25 PM 46.4 °F 42.9 °F 23.0 °F 40% 30.19 in 10.0 mi South 6.9 mph - N/A   Clear
11:45 PM 46.4 °F 43.5 °F 24.8 °F 43% 30.19 in 10.0 mi SSW 5.8 mph - N/A   Clear